[[{"header":{"parameterUnit":"m.s-1","parameterCategory":1,"la1":30.2991,"la2":30.254,"lo1":-89.0895,"lo2":-89.0444,"dy":0.0017,"dx":0.0017,"nx":28,"ny":28,"refTime":"2024-05-11T21:00:00:Z","depth":0,"parameterNumber":2,"parameterNumberName":"U-component_of_WINDS"},"data":[0,0,0,0,0,0,0,0,0,0,0,0,0,0,0,0,0,0,0,0,0,0,0,0,0,0,0,0,0,0,0,0,0,0,0,0,0,0,0,0,0,0,0,0,0,0,0,0,0,0,0,0,0,0,0,0,0,0,0.2233,0.2234,0,0.2374,0.2376,0.2378,0.2423,0.2423,0.2422,0.2421,0.2566,0.257,0.2574,0,0,0,0,0,0,0,0,0,0,0,0,0,0.1999,0.2003,0.2233,0.2234,0.2236,0.2374,0.2376,0.2378,0.2423,0.2423,0.2422,0.2421,0.2564,0.2569,0.2575,0,0,0,0,0,0,0,0,0,0,0,0,0,0.2116,0.2004,0.2232,0.2275,0.2281,0.2374,0.2376,0.2379,0.2423,0.2422,0.2422,0.2421,0.2562,0.2569,0.2575,0.2636,0,0,0.2596,0.2599,0,0,0,0,0,0,0,0,0.211,0.2125,0.2267,0.2273,0.2279,0.238,0.2347,0.2465,0.2424,0.2369,0.2421,0.242,0.2505,0.2516,0.2545,0.2642,0.2649,0.2596,0.26,0.2603,0.2605,0,0,0,0,0,0,0,0.2101,0.2119,0.2289,0.2269,0.2276,0.2287,0.2303,0.2369,0.2441,0.2374,0.2378,0.2394,0.2508,0.2538,0.2548,0.2651,0.2596,0.2602,0.2606,0.2609,0.2803,0.2804,0,0,0,0,0,0,0.2086,0.2112,0.2284,0.2293,0.219,0.2292,0.2309,0.2349,0.244,0.2453,0.2394,0.2395,0.2527,0.2541,0.2554,0.2629,0.2603,0.2609,0.2613,0.2802,0.2803,0.2805,0,0,0,0,0,0,0.2081,0.2101,0.2278,0.2204,0.2227,0.2297,0.2341,0.2352,0.2383,0.2455,0.2468,0.2413,0.2527,0.2544,0.2615,0.2635,0.2612,0.2619,0.2801,0.2802,0.2804,0.2781,0,0,0,0,0,0,0.2074,0.2099,0.2123,0.2204,0.2231,0.2338,0.2342,0.2355,0.2394,0.2397,0.2476,0.2488,0.2528,0.2604,0.2621,0.2644,0.2624,0.2799,0.2801,0.2804,0.278,0.2782,0.2783,0,0,0,0,0,0.2066,0.2111,0.2124,0.2145,0.2263,0.2339,0.2354,0.2399,0.2395,0.242,0.2466,0.2486,0.263,0.2611,0.2631,0.2655,0.2798,0.2801,0.2803,0.278,0.2782,0.2783,0,0,0,0,0,0,0.2032,0.2123,0.2138,0.2212,0.2267,0.2346,0.2379,0.24,0.2457,0.2457,0.2509,0.2527,0.2593,0.2631,0.2609,0.2717,0.2715,0.2721,0.269,0.2693,0.2694,0.2683,0.2629,0,0,0,0,0,0.2033,0.2088,0.2164,0.2221,0.2248,0.2308,0.2343,0.2373,0.2432,0.2456,0.2508,0.2564,0.2622,0.266,0.2717,0.2786,0.2803,0.2812,0.2814,0.2814,0.2819,0.2857,0.2862,0.2813,0.2813,0.2813,0,0,0.2036,0.2092,0.2124,0.2216,0.2262,0.2317,0.2328,0.2386,0.2427,0.2465,0.2534,0.2574,0.2641,0.271,0.2743,0.2744,0.2836,0.2818,0.2818,0.2823,0.286,0.2865,0.2869,0.2815,0.2815,0.2815,0,0,0.2068,0.2117,0.217,0.2216,0.2286,0.2325,0.2337,0.2414,0.2441,0.2512,0.2541,0.259,0.2689,0.2735,0.2771,0.2819,0.2838,0.2836,0.2843,0.288,0.2883,0.2887,0.2903,0.2908,0.2841,0.2841,0.2841,0,0.2063,0.2147,0.2194,0.225,0.2289,0.2325,0.2378,0.242,0.2505,0.2531,0.2531,0.2655,0.2702,0.2782,0.2793,0.2822,0.2837,0.2828,0.2879,0.2883,0.2887,0.2903,0.2909,0.284,0.284,0.284,0.284,0,0.2136,0.2194,0.2228,0.2309,0.2352,0.2406,0.2459,0.2497,0.2522,0.2561,0.2631,0.2689,0.2758,0.278,0.2805,0.2863,0.2861,0.2869,0.2867,0.289,0.2906,0.2913,0.2839,0.2839,0.284,0.284,0,0,0.2153,0.2258,0.2269,0.2306,0.2385,0.243,0.2485,0.2553,0.2583,0.264,0.2687,0.2769,0.2777,0.2818,0.2848,0.288,0.2913,0.2884,0.2887,0.2887,0.2979,0.2972,0.2978,0.2926,0.2927,0.2928,0.2973,0,0.2196,0.2296,0.2338,0.2419,0.2472,0.2506,0.2554,0.2607,0.2645,0.2694,0.2736,0.2793,0.2799,0.2824,0.2857,0.2902,0.2932,0.2899,0.2969,0.2971,0.2951,0.2987,0.298,0.3019,0.2979,0.298,0.2981,0,0.2259,0.2316,0.2401,0.2473,0.2497,0.2539,0.2603,0.2651,0.2711,0.2736,0.2781,0.2809,0.2867,0.2861,0.2941,0.2917,0.2948,0.2974,0.2977,0.2985,0.2977,0.2995,0.3033,0.3038,0.2992,0.2991,0.299,0,0.2261,0.2359,0.2423,0.2453,0.2538,0.2567,0.2603,0.2663,0.27,0.2756,0.2781,0.2842,0.2876,0.2923,0.2967,0.2959,0.3042,0.304,0.3063,0.3062,0.308,0.3078,0.3122,0.31,0.31,0.31,0.3099,0,0.2304,0.2355,0.2425,0.2464,0.2521,0.2569,0.2624,0.2663,0.2715,0.2762,0.2795,0.2838,0.2893,0.2943,0.2977,0.3037,0.3053,0.3074,0.3082,0.3071,0.3068,0.3092,0.309,0.3101,0.3101,0.3101,0.31,0,0.2317,0.2366,0.2437,0.2512,0.2531,0.257,0.2633,0.2672,0.271,0.2768,0.2785,0.2845,0.2905,0.2953,0.3031,0.3055,0.3117,0.3127,0.3097,0.3101,0.3122,0.3119,0.3183,0.3193,0.3164,0.3164,0.3164,0,0.2341,0.2381,0.2459,0.2493,0.2529,0.2583,0.2621,0.2668,0.2706,0.2777,0.2807,0.2869,0.2921,0.3014,0.3065,0.3124,0.3136,0.3154,0.3145,0.3131,0.3135,0.3132,0.3136,0.3155,0.3155,0.3155,0.3155,0,0.2378,0.24,0.2454,0.2516,0.256,0.2611,0.2663,0.2688,0.2745,0.2786,0.2847,0.2888,0.2967,0.3028,0.3092,0.3129,0.3151,0.3157,0.3166,0.3154,0.3135,0.3145,0.3099,0.3156,0.3156,0.3156,0.3156,0.3156,0.2397,0.2434,0.2494,0.2552,0.2596,0.2643,0.2683,0.2726,0.2778,0.2846,0.2871,0.2934,0.2991,0.308,0.3117,0.3166,0.3168,0.3181,0.3184,0.3186,0.3184,0.3127,0.3178,0.3178,0.3178,0.3178,0.3178,0,0.2436,0.2476,0.2529,0.26,0.2645,0.2662,0.272,0.2756,0.2811,0.2863,0.2913,0.2983,0.3042,0.3096,0.3157,0.3186,0.3197,0.32,0.3198,0.3206,0.3179,0.3166,0.319,0.319,0.319,0.319,0.319,0.319,0.2461,0.2523,0.2552,0.2635,0.2675,0.2737,0.2768,0.2811,0.2853,0.2929,0.2978,0.3013,0.3066,0.313,0.3184,0.3199,0.3219,0.322,0.3236,0.321,0.3208,0.3207,0.3194,0.3224,0.3224,0.3259,0.326,0.326]},{"header":{"parameterUnit":"m.s-1","parameterCategory":1,"la1":30.2991,"la2":30.254,"lo1":-89.0895,"lo2":-89.0444,"dy":0.0017,"dx":0.0017,"nx":28,"ny":28,"refTime":"2024-05-11T21:00:00:Z","depth":0,"parameterNumber":3,"parameterNumberName":"V-component_of_WINDS"},"data":[0,0,0,0,0,0,0,0,0,0,0,0,0,0,0,0,0,0,0,0,0,0,0,0,0,0,0,0,0,0,0,0,0,0,0,0,0,0,0,0,0,0,0,0,0,0,0,0,0,0,0,0,0,0,0,0,0,0,7.0186,7.0187,0,7.0247,7.0248,7.0248,7.023,7.0229,7.0228,7.0226,7.0284,7.0286,7.0289,0,0,0,0,0,0,0,0,0,0,0,0,0,7.0051,7.0053,7.0186,7.0187,7.0188,7.0247,7.0248,7.0249,7.023,7.0229,7.0227,7.0226,7.0283,7.0286,7.0289,0,0,0,0,0,0,0,0,0,0,0,0,0,7.011,7.0054,7.0186,7.0186,7.0187,7.0247,7.0248,7.0249,7.0231,7.0229,7.0227,7.0225,7.0282,7.0286,7.029,7.0352,0,0,7.0302,7.0304,0,0,0,0,0,0,0,0,7.0107,7.0115,7.0185,7.0186,7.0187,7.0229,7.0221,7.0283,7.0231,7.0214,7.0226,7.0224,7.0267,7.0272,7.0287,7.0355,7.0357,7.0302,7.0305,7.0306,7.0308,0,0,0,0,0,0,0,7.0103,7.0112,7.021,7.0186,7.0187,7.0181,7.0188,7.0232,7.025,7.0215,7.0214,7.0222,7.0267,7.0283,7.0288,7.0358,7.0302,7.0306,7.0308,7.031,7.048,7.0482,0,0,0,0,0,0,7.0099,7.0109,7.0208,7.0212,7.0142,7.0185,7.0193,7.0217,7.0249,7.0253,7.0223,7.0221,7.0277,7.0284,7.029,7.0366,7.0306,7.031,7.0312,7.0478,7.0481,7.0483,0,0,0,0,0,0,7.0096,7.0108,7.0206,7.016,7.0172,7.019,7.0218,7.022,7.0236,7.0256,7.0258,7.0237,7.0276,7.0285,7.0337,7.0368,7.0312,7.0316,7.0476,7.0479,7.0482,7.0517,0,0,0,0,0,0,7.0092,7.0107,7.0132,7.0161,7.0175,7.0253,7.022,7.0222,7.0244,7.0241,7.0269,7.0272,7.0275,7.0331,7.0341,7.0372,7.0319,7.0473,7.0477,7.0481,7.0513,7.0521,7.0528,0,0,0,0,0,7.0087,7.0138,7.0133,7.0145,7.0207,7.0255,7.0263,7.0267,7.0246,7.0271,7.0283,7.0271,7.0363,7.0337,7.0348,7.038,7.0471,7.0476,7.048,7.051,7.052,7.0528,0,0,0,0,0,0,7.0109,7.0142,7.0137,7.0199,7.0225,7.0252,7.0283,7.0276,7.0307,7.0303,7.0305,7.0311,7.0366,7.0378,7.0349,7.0443,7.0414,7.0421,7.0433,7.0442,7.0449,7.0444,7.0322,0,0,0,0,0,7.0122,7.016,7.0186,7.0238,7.0251,7.0265,7.0286,7.0287,7.0313,7.0323,7.034,7.0364,7.0398,7.0421,7.0453,7.0515,7.0521,7.0543,7.055,7.0556,7.0562,7.0596,7.0606,7.0498,7.0498,7.0498,0,0,7.0147,7.017,7.0193,7.0243,7.0263,7.0301,7.0274,7.0315,7.0343,7.0329,7.038,7.0393,7.0421,7.0479,7.0505,7.0491,7.0594,7.0562,7.0567,7.057,7.0602,7.0612,7.0621,7.0502,7.0501,7.0501,0,0,7.0214,7.0235,7.0281,7.0302,7.0334,7.0343,7.0354,7.0383,7.0391,7.0443,7.0433,7.0466,7.0525,7.0545,7.0563,7.0638,7.0628,7.0649,7.0686,7.0719,7.0728,7.0735,7.0762,7.0772,7.0655,7.0655,7.0655,0,7.0241,7.03,7.0305,7.0348,7.037,7.0361,7.0407,7.0427,7.0466,7.0481,7.0465,7.054,7.0557,7.062,7.0639,7.0654,7.0666,7.0645,7.0727,7.0734,7.0741,7.0767,7.0777,7.0657,7.0657,7.0656,7.0656,0,7.0332,7.0373,7.0406,7.0447,7.0472,7.0516,7.0527,7.0552,7.0551,7.0562,7.0615,7.0636,7.0673,7.0688,7.0686,7.0751,7.0741,7.0726,7.0697,7.0754,7.0778,7.0788,7.066,7.0659,7.0659,7.0658,0,0,7.0413,7.0457,7.0469,7.0488,7.0523,7.0554,7.0597,7.0635,7.0657,7.0684,7.072,7.0771,7.0758,7.0779,7.0779,7.0809,7.0867,7.079,7.079,7.0803,7.0939,7.095,7.0961,7.0861,7.0863,7.0864,7.0937,0,7.0482,7.0561,7.0567,7.0637,7.0675,7.0667,7.0705,7.073,7.0741,7.0773,7.0784,7.0821,7.08,7.0813,7.0841,7.0854,7.0894,7.0849,7.0894,7.0895,7.0887,7.0974,7.0985,7.1053,7.0946,7.0948,7.0949,0,7.0573,7.0606,7.068,7.0711,7.0726,7.0761,7.0796,7.0828,7.0855,7.0861,7.0885,7.0882,7.0926,7.0896,7.0956,7.0925,7.0943,7.0953,7.0955,7.0959,7.0925,7.098,7.1074,7.1084,7.0964,7.0962,7.0961,0,7.0625,7.0688,7.074,7.0757,7.0793,7.0817,7.0833,7.0859,7.0882,7.0912,7.0927,7.0962,7.0981,7.1007,7.1014,7.0991,7.1074,7.1044,7.1079,7.1079,7.1096,7.1095,7.1195,7.1109,7.1109,7.1109,7.1108,0,7.0701,7.0747,7.0764,7.0797,7.0848,7.0854,7.0904,7.0918,7.0942,7.0976,7.0971,7.1003,7.1009,7.1042,7.1047,7.1096,7.1105,7.111,7.1111,7.1111,7.111,7.1122,7.1118,7.1111,7.1111,7.111,7.111,0,7.0768,7.0781,7.0838,7.0869,7.0878,7.0914,7.0939,7.097,7.098,7.1024,7.1034,7.1051,7.1089,7.1099,7.1144,7.1148,7.1206,7.1202,7.1197,7.1197,7.1231,7.1228,7.1342,7.1357,7.1262,7.1263,7.1264,0,7.0816,7.0851,7.0886,7.091,7.0927,7.0965,7.0988,7.0996,7.102,7.1055,7.1082,7.112,7.1151,7.1214,7.1229,7.1264,7.1261,7.1298,7.1266,7.1264,7.1261,7.1259,7.1262,7.1304,7.1305,7.1306,7.1307,0,7.0899,7.0905,7.094,7.0978,7.1007,7.1036,7.1064,7.1084,7.1095,7.1123,7.1163,7.1188,7.1235,7.1273,7.1309,7.1324,7.1317,7.1317,7.1327,7.1327,7.1323,7.1325,7.1214,7.1314,7.1313,7.1313,7.1313,7.1312,7.0958,7.0989,7.1019,7.1058,7.1081,7.1108,7.1138,7.1154,7.1188,7.1229,7.1231,7.1275,7.1301,7.1349,7.1366,7.14,7.1388,7.1402,7.1406,7.1409,7.1413,7.1318,7.1406,7.1406,7.1406,7.1406,7.1405,0,7.1041,7.106,7.1097,7.1138,7.1168,7.1161,7.1192,7.1218,7.1258,7.1284,7.1315,7.1362,7.1399,7.1418,7.1455,7.1478,7.1476,7.1487,7.1485,7.1489,7.1421,7.1409,7.1489,7.1489,7.1489,7.1489,7.1489,7.1489,7.1088,7.1141,7.115,7.1214,7.1232,7.1276,7.1295,7.1319,7.134,7.1393,7.1425,7.1437,7.146,7.1499,7.1533,7.1537,7.1551,7.1564,7.1567,7.1502,7.1494,7.1486,7.1474,7.1567,7.1567,7.1632,7.1632,7.1633]}]]